Regional Weather Roundup
Issued by NWS New Orleans/Baton Rouge, LA

Home | Current Version | Previous Version | Text Only | Print | Product List | Glossary On
Versions: 1 2 3 4 5 6 7 8 9 10 11 12 13 14 15 16 17 18 19 20 21 22 23 24 25 26 27 28 29 30 31 32 33 34 35 36 37 38 39 40 41 42 43 44 45 46 47 48 49 50
000
ASUS44 KLIX 281112
RWRLIX
NEW ORLEANS REGIONAL WEATHER ROUNDUP
NATIONAL WEATHER SERVICE NEW ORLEANS LA
600 AM CDT THU MAY 28 2015

NOTE: "FAIR" INDICATES FEW OR NO CLOUDS BELOW 12,000 FEET WITH NO
      SIGNIFICANT WEATHER AND/OR OBSTRUCTIONS TO VISIBILITY.
      SKY/WX - SKY CONDITION AND SIGNIFICANT WEATHER.
      TMP - AIR TEMPERATURE.     DP    - DEWPOINT TEMPERATURE.
      RH  - RELATIVE HUMIDITY.   PRES  - PRESSURE.
      HI  - HEAT INDEX.          WCI   - WIND CHILL INDEX.

*  THESE STATIONS ARE NOT NWS OR FAA STATIONS AND ARE NOT UNDER
   NWS QUALITY CONTROL.

LAZ038-040-048-061>063-065>067-069-281200-
SOUTHEAST LOUISIANA

CITY           SKY/WX    TMP DP  RH WIND       PRES   REMARKS
N.O. AUDUBON     N/A     70  70 100 MISG        N/A
N.O. INTL ARPT PTCLDY    69  66  90 NW3       30.09R
N.O. LAKEFRONT CLEAR     78  71  79 NW3       30.09R
SLIDELL        CLEAR     66  66 100 CALM      30.09R
BATON ROUGE    CLEAR     65  64  97 CALM      30.09S
BOOTHVILLE     PTCLDY    75  74  96 CALM      30.09R
BELLE CHASSE   PTCLDY    67  65  93 CALM      30.08R
BOGALUSA*        N/A     66  63  90 CALM      30.11R
GALLIANO*      SUNNY     65  64  96 CALM      30.09R
NEW ROADS*     FOG       65  64  97 CALM      30.10R VSB<1/4
GONZALES*        N/A     66  66 100 CALM      30.08R
HAMMOND*       CLEAR     64  63  94 CALM      30.11R
HOUMA*         CLEAR     66  66 100 CALM      30.08R FOG
PORT FOURCHON* SUNNY     77  73  88 CALM      30.09R

$$

MSZ070-080>082-281200-
SOUTHERN MISSISSIPPI

CITY           SKY/WX    TMP DP  RH WIND       PRES   REMARKS
MCCOMB         CLEAR     63  62  97 CALM      30.12R
GULFPORT       PTCLDY    71  69  93 CALM      30.09R
BILOXI         PTCLDY    73  72  99 N5        30.09R
PASCAGOULA     MOCLDY    72  71  97 CALM      30.10R

$$

COASTAL OBSERVATIONS
LAKE AND NEARSHORE STATIONS

STATION/POSITION TIME  TEMP    WIND        PRES    WAVE
                       AIR SEA DIR/SP/G            HT/PER
                 (UTC) (F)     (DEG/KT/KT) (MB)    (FT/S)
PASCAGOULA       1000   79     150/  6/  9 1018.3
WAVELAND YACHT   1000   73 79   60/  4/  4 1018.5
GRAND ISLE       1000   78 80  170/  4/  6 1018.2
SOUTHWEST PASS   1000   78 74  160/  7/ 10 1018.5
NEW CANAL        1000   73 79  200/  1/  2 1017.7
SHELL BEACH      1000   76 80  230/  2/  3 1017.8

OFFSHORE STATIONS

STATION/POSITION TIME  TEMP    WIND        PRES    WAVE
                       AIR SEA DIR/SP/G            HT/PER
                 (UTC) (F)     (DEG/KT/KT) (MB)    (FT/S)
64 S DAUPHIN ISL 1050   79 79  150/  8/  8 1019.0    3/ 6

$$




USA.gov is the U.S. government's official web portal to all federal, state and local government web resources and services.